STARLINK-11161, 60124

Orbit data source: Space-Track

STARLINK-11161, 60124 is a payload satellite owned by SpaceX/Seattle (US) in LEO that was launched on Mon, 24 Jun 2024 UTC via an FALCON 9 launch vehicle from the Air Force Western Test Range (AFWTR). Payload-class satellites include a variety of spacecraft equipped with specific instruments for various scientific and technological missions. These include communications satellites like Starlink; space stations such as the ISS; scientific satellites like the Hubble; Earth observation satellites from companies like Planet Labs, Umbra, and HawkEye 360; GPS; miniature CubeSats for education and research; and military/defense satellites.

Loading next visibility...
Identifier
60124, 2024-118M
Orbit
LEO
Country
Flag of USUS
Related business
Manufacturer
SpaceX/Seattle
Mission
Operational spacecraft
Bus & Motor
STARLINK V2MD, Unknown motor
Mass
960 kg wet, ~910 kg dry
Launch date (UTC)
2024-06-24 (1 year ago)
Launch vehicle
FALCON 9
Launch site
Air Force Western Test Range (AFWTR)
Object type
Payload
Rocket body
Debris
Shape & HBR
Unknown shape, 18.1 m
Radar Cross Section
Large (>1 m²)

Expand to show TLE details & history
Last TLE update: 13 hours ago

TLE from 13 hours ago
0 STARLINK-11161
1 60124U 24118M   25303.96587490  .00010680  00000-0  93097-4 0  9997
2 60124  53.1581 141.1249 0001837  91.4321 268.6907 15.69658504 77617
Epoch: 2025-10-30T23:10Z
TLE epoch observation values (Epoch: 2025-10-30T23:10:51.591Z)
Latitude
-0.00004°
Longitude
113.89282°
Altitude
360.817 km
Speed
7.694 km/s
True Right ascension
09h 24m 29s
True Declination
0° 00' 00"
Sunlit
Object was in daylight at epoch
Visualization orbit readout
Latitude
Unknown
Longitude
Unknown
Altitude
Unknown
Speed
Unknown
Apparent Right ascension
Unknown
Apparent Declination
Unknown
Sunlit
N/A
Visualization observer readout
Local Sidereal Time
08:10:40
Azimuth
Unknown
Elevation
Unknown
Doppler factor
Unknown
Orbital elements
Apogee altitude
361.373 km
Perigee altitude
358.897 km
Semi-major axis
6,738.272 km
Eccentricity
0.00018
Inclination
53.1581°
RAAN
141.1249°
Arg. of periapsis
91.4321°
True anomaly
268.66966°
Mean anomaly
268.6907°
Eccentric anomaly
268.68018°
Mean motion
3.92392 °/min
Orbital period
91.74 mins
BSTAR
0.000093097
Loading maneuver chart data...
Computing Atmospheric mass density...
Loading historical data...
Loading historical data...
Loading historical data...
Loading historical data...
Loading historical data...
Loading historical data...
Loading historical data...

Documentation

Showing up to 5 results
|